Overview Statistics Trail Chart Weather Telemetry Raw packets
 

This is the latest recevied weather packets stored in our database for station/object K8RRT. If no packets are shown the sender has not sent any weather packets the latest 10 day(s).

<< 61 62 63 64 65 66 67 >>
Time Temp. Humidity Pressure Rain* Wind** Luminosity Snow
1788200503 31.67° C 73% 1016 hPa 0 mm - 641 W/m² -
1788200198 31.11° C 72% 1016 hPa 0 mm - 645 W/m² -
1788199898 31.11° C 74% 1015.9 hPa 0 mm - 626 W/m² -
1788199593 30.56° C 72% 1015.9 hPa 0 mm - 681 W/m² -
1788199288 31.11° C 73% 1016 hPa 0 mm - 272 W/m² -
1788198982 31.11° C 75% 1016.3 hPa 0 mm - 448 W/m² -
1788198694 30.56° C 76% 1016 hPa 0 mm - 780 W/m² -
1788198380 30.56° C 77% 1016.3 hPa 0 mm - 562 W/m² -
1788198074 30.56° C 75% 1016 hPa 0 mm - 324 W/m² -
1788197773 30° C 75% 1016.2 hPa 0 mm - 744 W/m² -
1788197469 30.56° C 75% 1016.6 hPa 0 mm - 441 W/m² -
1788197169 30.56° C 75% 1016.4 hPa 0 mm - 764 W/m² -
1788196864 30.56° C 78% 1016.2 hPa 0 mm - 768 W/m² -
1788196559 30° C 76% 1016.5 hPa 0 mm - 531 W/m² -
1788196256 30° C 77% 1016.5 hPa 0 mm - 511 W/m² -
1788195952 30° C 79% 1016.6 hPa 0 mm - 538 W/m² -
1788195650 30° C 76% 1016.4 hPa 0 mm - 680 W/m² -
1788195349 30° C 75% 1016.4 hPa 0 mm - 848 W/m² -
1788195046 30° C 77% 1016.3 hPa 0 mm - 817 W/m² -
1788194742 30° C 77% 1016.5 hPa 0 mm - 830 W/m² -
1788194441 29.44° C 79% 1016.7 hPa 0 mm - 833 W/m² -
1788194132 29.44° C 78% 1016.5 hPa 0 mm - 676 W/m² -
1788193828 29.44° C 80% 1016.5 hPa 0 mm - 839 W/m² -
1788193526 28.89° C 80% 1016.5 hPa 0 mm - 913 W/m² -
1788193225 28.33° C 80% 1016.5 hPa 0 mm - 499 W/m² -

* Rain latest hour (hover to see other rain measurements)
** Current wind speed in m/s (hover to see current wind gust speed)